This is the latest recevied weather packets stored in our database for station/object KK7ISX. If no packets are shown the sender has not sent any weather packets the latest 10 day(s).
| Time | Temp. | Humidity | Pressure | Rain* | Wind** | Luminosity | Snow |
|---|---|---|---|---|---|---|---|
| 1777429993 | 15° C | 36% | 1017.8 hPa | 0 mm | - | 6 W/m² | - |
| 1777429691 | 15.56° C | 36% | 1017.9 hPa | 0 mm | - | 9 W/m² | - |
| 1777429386 | 15.56° C | 35% | 1017.6 hPa | 0 mm | - | 12 W/m² | - |
| 1777429081 | 15.56° C | 36% | 1017.8 hPa | 0 mm | - | 15 W/m² | - |
| 1777428778 | 15.56° C | 35% | 1017.9 hPa | 0 mm | - | 18 W/m² | - |
| 1777428474 | 15.56° C | 35% | 1017.7 hPa | 0 mm | - | 22 W/m² | - |
| 1777428170 | 16.11° C | 35% | 1018.1 hPa | 0 mm | - | 26 W/m² | - |
| 1777427866 | 16.11° C | 35% | 1017.8 hPa | 0 mm | - | 30 W/m² | - |
| 1777427563 | 16.11° C | 34% | 1017.9 hPa | 0 mm | - | 34 W/m² | - |
| 1777427259 | 16.67° C | 34% | 1018.2 hPa | 0 mm | - | 39 W/m² | - |
| 1777426957 | 16.67° C | 34% | 1018.1 hPa | 0 mm | - | 46 W/m² | - |
| 1777426654 | 16.67° C | 33% | 1018.1 hPa | 0 mm | - | 55 W/m² | - |
| 1777426350 | 16.67° C | 34% | 1018.2 hPa | 0 mm | - | 60 W/m² | - |
| 1777426046 | 16.67° C | 33% | 1018.4 hPa | 0 mm | - | 59 W/m² | - |
| 1777425741 | 17.22° C | 33% | 1018.1 hPa | 0 mm | - | 50 W/m² | - |
| 1777425436 | 17.22° C | 32% | 1018.2 hPa | 0 mm | - | 55 W/m² | - |
| 1777425132 | 17.78° C | 33% | 1018.4 hPa | 0 mm | - | 93 W/m² | - |
| 1777424828 | 17.78° C | 32% | 1018.2 hPa | 0 mm | - | 98 W/m² | - |
| 1777424524 | 17.78° C | 33% | 1018.2 hPa | 0 mm | - | 116 W/m² | - |
| 1777424220 | 17.78° C | 32% | 1018.4 hPa | 0 mm | - | 135 W/m² | - |
| 1777423917 | 17.78° C | 33% | 1018.3 hPa | 0 mm | - | 132 W/m² | - |
| 1777423613 | 18.33° C | 32% | 1018.2 hPa | 0 mm | - | 153 W/m² | - |
| 1777423308 | 18.33° C | 32% | 1018.2 hPa | 0 mm | - | 151 W/m² | - |
| 1777423004 | 17.78° C | 32% | 1018.1 hPa | 0 mm | - | 173 W/m² | - |
| 1777422699 | 17.78° C | 32% | 1018.2 hPa | 0 mm | - | 185 W/m² | - |
* Rain latest hour (hover to see other rain measurements)
** Current wind speed in m/s (hover to see current wind gust speed)